Terminal Aerodrome Forecast
Issued by NWS Topeka, KS

Home | Current Version | Previous Version | Graphics & Text | Print | Product List | Glossary On
Versions: 1 2 3 4 5 6 7 8 9 10 11 12
000
FTUS43 KTOP 192300
TAFTOP
TAF
KTOP 192320Z 2000/2024 17010KT P6SM FEW040
     FM200100 16003KT P6SM SCT140
     FM201500 18012G20KT P6SM FEW035=

USA.gov is the U.S. government's official web portal to all federal, state and local government web resources and services.